User: anonymous   Login
Location: Godiavel Galaoual
(15.2485°N, 12.6604°W)
Time: 10:42:16
(UTC+00:00)
Language:

Explorer 7 - Orbit

View from above orbital plane
View from above orbital plane
View from above satellite
View from above satellite

Ground track
Ground track

The orbit data is extracted from the following two-line orbital elements,

1    22U 59009A   21166.10545361  .00000107  00000-0  30817-4 0  9999
2    22  50.2828 199.9699 0138576 204.8043 154.6199 14.95596448279596
Epoch (UTC): 15 June 2021 02:31:51
Eccentricity: 0.0138576
inclination: 50.2828°
perigee height: 484 km
apogee height: 677 km
right ascension of ascending node: 199.9699°
argument of perigee: 204.8043°
revolutions per day: 14.95596448
mean anomaly at epoch: 154.6199°
orbit number at epoch: 27959

The dashed part of the orbit path shows where the satellite is in the earth's shadow,  

DLR